STARLINK-32290, 60359

Orbit data source: Space-Track

STARLINK-32290, 60359 is a payload satellite owned by SpaceX/Seattle (US) in LEO that was launched on Sun, 04 Aug 2024 UTC via an FALCON 9 launch vehicle from the Air Force Western Test Range (AFWTR). Payload-class satellites include a variety of spacecraft equipped with specific instruments for various scientific and technological missions. These include communications satellites like Starlink; space stations such as the ISS; scientific satellites like the Hubble; Earth observation satellites from companies like Planet Labs, Umbra, and HawkEye 360; GPS; miniature CubeSats for education and research; and military/defense satellites.

Loading next visibility...
Identifier
60359, 2024-138E
Orbit
LEO
Country
Flag of USUS
Related business
Manufacturer
SpaceX/Seattle
Mission
Operational Commercial Communications
Bus & Motor
STARLINK V2M, Unknown motor
Mass
730 kg wet, ~700 kg dry
Launch date (UTC)
2024-08-04 (2 years ago)
Launch vehicle
FALCON 9
Launch site
Air Force Western Test Range (AFWTR)
Object type
Payload
Rocket body
Debris
Shape & HBR
Box + 2 Pan, 17.7 m
Radar Cross Section
33.884 m², Large (>1 m²)

Expand to show TLE details & history
Last TLE update: 2 days ago

TLE from 2 days ago
0 STARLINK-32290
1 60359U 24138E   26257.12684109  .00000542  00000-0  27176-4 0  9992
2 60359  53.1595 153.2404 0001073  76.4589 283.6533 15.34400679100529
Epoch: 2026-09-14T03:02Z
TLE epoch observation values (Epoch: 2026-09-14T03:02:39.070Z)
Latitude
-0.00001°
Longitude
114.46599°
Altitude
463.429 km
Speed
7.636 km/s
True Right ascension
10h 12m 57s
True Declination
0° 00' 00"
Sunlit
Object was in daylight at epoch
Visualization orbit readout
Latitude
Unknown
Longitude
Unknown
Altitude
Unknown
Speed
Unknown
Apparent Right ascension
Unknown
Apparent Declination
Unknown
Sunlit
N/A
Visualization observer readout
Local Sidereal Time
08:41:27
Azimuth
Unknown
Elevation
Unknown
Doppler factor
Unknown
Orbital elements
Apogee altitude
463.692 km
Perigee altitude
462.224 km
Semi-major axis
6,841.095 km
Eccentricity
0.00011
Inclination
53.1595°
RAAN
153.2404°
Arg. of periapsis
76.4589°
True anomaly
283.64135°
Mean anomaly
283.6533°
Eccentric anomaly
283.64733°
Mean motion
3.83579 °/min
Orbital period
93.85 mins
BSTAR
0.000027176
Loading maneuver chart data...
Computing Atmospheric mass density...
Loading historical data...
Loading historical data...
Loading historical data...
Loading historical data...
Loading historical data...
Loading historical data...
Loading historical data...

Documentation

Showing up to 5 results
|